TimeCST,TemperatureF,Dew PointF,Humidity,Sea Level PressureIn,VisibilityMPH,Wind Direction,Wind SpeedMPH,Gust SpeedMPH,PrecipitationIn,Events,Conditions,WindDirDegrees,DateUTC
12:16 AM,35.6,30.0,80,30.14,10.0,NW,6.9,-,N/A,,Overcast,310,2013-11-11 06:16:00
12:36 AM,35.2,29.3,79,30.15,10.0,NW,10.4,16.1,N/A,,Overcast,320,2013-11-11 06:36:00
12:56 AM,35.2,29.1,78,30.14,10.0,NW,10.4,17.3,N/A,,Overcast,320,2013-11-11 06:56:00
1:16 AM,35.2,28.9,78,30.16,10.0,NW,9.2,18.4,N/A,,Overcast,320,2013-11-11 07:16:00
1:36 AM,34.5,27.7,76,30.16,10.0,NNW,15.0,25.3,N/A,,Overcast,330,2013-11-11 07:36:00
1:56 AM,32.2,25.5,76,30.18,10.0,NNW,16.1,21.9,N/A,,Overcast,330,2013-11-11 07:56:00
2:16 AM,31.5,23.4,72,30.19,10.0,North,12.7,21.9,N/A,,Overcast,350,2013-11-11 08:16:00
2:35 AM,30.2,19.8,65,30.21,10.0,NNW,12.7,21.9,N/A,,Overcast,340,2013-11-11 08:35:00
2:56 AM,29.1,10.4,46,30.22,10.0,NNW,13.8,24.2,N/A,,Overcast,330,2013-11-11 08:56:00
3:15 AM,28.4,12.9,52,30.23,10.0,NNW,12.7,18.4,N/A,,Overcast,330,2013-11-11 09:15:00
3:36 AM,27.5,13.1,55,30.24,10.0,NW,12.7,-,N/A,,Overcast,320,2013-11-11 09:36:00
3:56 AM,27.1,13.8,57,30.26,10.0,NW,13.8,19.6,N/A,,Overcast,320,2013-11-11 09:56:00
4:15 AM,27.1,11.8,53,30.26,10.0,NNW,12.7,18.4,N/A,,Overcast,340,2013-11-11 10:15:00
4:36 AM,26.4,12.7,56,30.27,10.0,NNW,11.5,17.3,N/A,,Overcast,330,2013-11-11 10:36:00
4:56 AM,25.7,12.2,57,30.29,10.0,NNW,12.7,19.6,N/A,,Overcast,340,2013-11-11 10:56:00
5:15 AM,25.3,13.1,60,30.29,10.0,NNW,10.4,-,N/A,,Overcast,340,2013-11-11 11:15:00
5:36 AM,24.8,13.1,61,30.31,10.0,North,13.8,19.6,N/A,,Overcast,350,2013-11-11 11:36:00
5:56 AM,24.1,13.1,63,30.32,10.0,North,11.5,-,N/A,,Mostly Cloudy,350,2013-11-11 11:56:00
6:15 AM,23.7,13.5,65,30.33,10.0,North,13.8,20.7,N/A,,Overcast,350,2013-11-11 12:15:00
6:36 AM,22.8,11.8,63,30.34,10.0,NNW,13.8,20.7,N/A,,Overcast,340,2013-11-11 12:36:00
6:56 AM,21.9,10.4,61,30.36,10.0,NNW,17.3,21.9,N/A,,Overcast,340,2013-11-11 12:56:00
7:15 AM,21.2,9.9,62,30.37,10.0,NNW,11.5,19.6,N/A,,Overcast,340,2013-11-11 13:15:00
7:36 AM,20.8,9.1,61,30.39,10.0,NNW,13.8,24.2,N/A,,Overcast,340,2013-11-11 13:36:00
7:56 AM,20.5,9.5,63,30.40,10.0,NNW,16.1,21.9,N/A,,Mostly Cloudy,340,2013-11-11 13:56:00
8:15 AM,20.1,8.4,61,30.42,10.0,NNW,13.8,24.2,N/A,,Scattered Clouds,340,2013-11-11 14:15:00
8:36 AM,20.1,9.3,63,30.42,10.0,NNW,16.1,21.9,N/A,,Clear,340,2013-11-11 14:36:00
8:56 AM,20.1,9.0,62,30.43,10.0,North,15.0,19.6,N/A,,Clear,350,2013-11-11 14:56:00
9:16 AM,20.3,9.1,62,30.44,10.0,North,13.8,20.7,N/A,,Clear,350,2013-11-11 15:16:00
9:36 AM,20.3,9.0,62,30.45,10.0,NNW,15.0,21.9,N/A,,Clear,330,2013-11-11 15:36:00
9:56 AM,20.5,8.6,60,30.46,10.0,NNW,13.8,19.6,N/A,,Clear,340,2013-11-11 15:56:00
10:16 AM,20.8,8.4,59,30.47,10.0,NNW,15.0,21.9,N/A,,Clear,340,2013-11-11 16:16:00
10:36 AM,20.8,8.8,60,30.48,10.0,NNW,17.3,20.7,N/A,,Scattered Clouds,330,2013-11-11 16:36:00
10:55 AM,20.3,8.6,61,30.48,10.0,NNW,10.4,17.3,N/A,,Scattered Clouds,330,2013-11-11 16:55:00
11:16 AM,21.9,8.8,57,30.49,10.0,NW,15.0,20.7,N/A,,Scattered Clouds,320,2013-11-11 17:16:00
11:36 AM,22.8,9.0,55,30.49,10.0,NW,13.8,19.6,N/A,,Scattered Clouds,310,2013-11-11 17:36:00
11:56 AM,23.0,8.2,53,30.49,10.0,NW,16.1,20.7,N/A,,Clear,320,2013-11-11 17:56:00
12:16 PM,23.9,8.6,52,30.49,10.0,North,13.8,17.3,N/A,,Scattered Clouds,350,2013-11-11 18:16:00
12:36 PM,24.1,8.6,52,30.49,10.0,North,12.7,18.4,N/A,,Clear,350,2013-11-11 18:36:00
12:56 PM,24.8,7.9,49,30.50,10.0,NNW,15.0,20.7,N/A,,Clear,330,2013-11-11 18:56:00
1:16 PM,24.8,7.7,48,30.50,10.0,NNW,13.8,18.4,N/A,,Clear,340,2013-11-11 19:16:00
1:36 PM,25.3,9.1,50,30.50,10.0,NW,15.0,19.6,N/A,,Scattered Clouds,320,2013-11-11 19:36:00
1:56 PM,25.0,8.4,50,30.51,10.0,NW,11.5,20.7,N/A,,Scattered Clouds,320,2013-11-11 19:56:00
2:16 PM,25.0,8.1,49,30.51,10.0,NNW,10.4,19.6,N/A,,Clear,340,2013-11-11 20:16:00
2:36 PM,25.2,8.2,49,30.52,10.0,NNW,11.5,17.3,N/A,,Clear,340,2013-11-11 20:36:00
2:56 PM,24.6,8.6,51,30.53,10.0,NNW,12.7,18.4,N/A,,Clear,340,2013-11-11 20:56:00
3:16 PM,23.9,7.0,49,30.53,10.0,NNW,12.7,20.7,N/A,,Scattered Clouds,340,2013-11-11 21:16:00
3:36 PM,23.7,9.0,53,30.54,10.0,NW,15.0,19.6,N/A,,Clear,310,2013-11-11 21:36:00
3:56 PM,23.0,8.4,54,30.55,10.0,NW,15.0,21.9,N/A,,Clear,320,2013-11-11 21:56:00
4:16 PM,22.1,7.3,53,30.56,10.0,NNW,13.8,17.3,N/A,,Clear,330,2013-11-11 22:16:00
4:35 PM,21.7,7.5,54,30.57,10.0,NNW,10.4,19.6,N/A,,Clear,330,2013-11-11 22:35:00
4:56 PM,20.8,7.7,57,30.58,10.0,NW,11.5,17.3,N/A,,Clear,320,2013-11-11 22:56:00
5:16 PM,20.3,7.9,59,30.59,10.0,NW,10.4,-,N/A,,Clear,320,2013-11-11 23:16:00
5:35 PM,20.1,7.3,58,30.59,10.0,NNW,8.1,-,N/A,,Clear,330,2013-11-11 23:35:00
5:56 PM,19.8,7.9,60,30.61,10.0,NNW,10.4,16.1,N/A,,Clear,340,2013-11-11 23:56:00
6:16 PM,19.2,7.7,61,30.62,10.0,NNW,10.4,-,N/A,,Clear,330,2013-11-12 00:16:00
6:36 PM,18.9,7.9,62,30.63,10.0,NNW,11.5,-,N/A,,Clear,330,2013-11-12 00:36:00
6:56 PM,18.1,8.1,65,30.64,10.0,NW,5.8,-,N/A,,Clear,320,2013-11-12 00:56:00
7:16 PM,18.0,7.5,64,30.65,10.0,NW,11.5,-,N/A,,Clear,310,2013-11-12 01:16:00
7:36 PM,17.6,7.3,64,30.66,10.0,NNW,9.2,17.3,N/A,,Clear,330,2013-11-12 01:36:00
7:56 PM,17.2,7.5,66,30.67,10.0,NW,10.4,-,N/A,,Clear,320,2013-11-12 01:56:00
8:16 PM,16.9,7.3,66,30.68,10.0,NW,8.1,-,N/A,,Clear,310,2013-11-12 02:16:00
8:36 PM,16.5,7.3,67,30.68,10.0,NW,9.2,-,N/A,,Clear,310,2013-11-12 02:36:00
8:56 PM,16.2,6.8,67,30.69,10.0,NW,9.2,-,N/A,,Clear,320,2013-11-12 02:56:00
9:15 PM,15.8,6.8,68,30.69,10.0,NW,6.9,-,N/A,,Clear,320,2013-11-12 03:15:00
9:36 PM,15.6,6.8,68,30.70,10.0,NW,8.1,-,N/A,,Clear,310,2013-11-12 03:36:00
9:56 PM,15.3,6.4,68,30.70,10.0,NW,6.9,-,N/A,,Clear,310,2013-11-12 03:56:00
10:15 PM,14.9,6.4,69,30.71,10.0,NW,11.5,16.1,N/A,,Clear,320,2013-11-12 04:15:00
10:36 PM,14.9,6.4,69,30.71,10.0,NW,9.2,-,N/A,,Clear,310,2013-11-12 04:36:00
10:56 PM,14.5,6.3,70,30.72,10.0,NW,5.8,-,N/A,,Clear,310,2013-11-12 04:56:00
11:15 PM,14.0,6.3,71,30.72,10.0,NW,6.9,-,N/A,,Clear,310,2013-11-12 05:15:00
11:36 PM,13.8,6.1,71,30.73,10.0,NW,8.1,-,N/A,,Clear,310,2013-11-12 05:36:00
11:56 PM,13.6,5.9,71,30.73,10.0,WNW,6.9,-,N/A,,Clear,300,2013-11-12 05:56:00